Regional Weather Roundup
Issued by NWS

Home | Current Version | Previous Version | Graphics & Text | Print | Product List | Glossary On
Versions: 1 2 3 4 5 6 7 8 9 10 11 12 13 14 15 16 17 18 19 20 21 22 23 24 25 26 27 28
000
ASUS45 KTFX 210610
RWRMT
MONTANA REGIONAL WEATHER ROUNDUP
NATIONAL WEATHER SERVICE GREAT FALLS MT
1200 AM MDT THU SEP 21 2017

NOTE: "FAIR" INDICATES FEW OR NO CLOUDS BELOW 12000 FEET WITH NO
SIGNIFICANT WEATHER AND/OR OBSTRUCTIONS TO VISIBILITY.

MTZ001>007-043-210700-
WEST OF THE DIVIDE

CITY           SKY/WX    TMP DP  RH WIND       PRES   REMARKS
KALISPELL      CLOUDY    43  38  82 S8        29.71R
MISSOULA       CLOUDY    44  37  76 W3        29.75S
BUTTE          CLOUDY    34  33  96 SE5       29.76R
MULLAN PASS    SNOW      31  29  92 CALM      29.70F VSB 1/4
ANACONDA         N/A     39  30  70 CALM      29.75S
DEER LODGE       N/A     39  34  81 CALM      29.77R
EUREKA           N/A     45  37  76 CALM      29.70R
HAMILTON         N/A     41  34  75 S7        29.76R
LIBBY            N/A     39  36  87 CALM      29.70R
PLAINS           N/A     41  35  79 CALM      29.76
$$

MTZ008-052>055-210700-
SOUTHWEST MONTANA

CITY           SKY/WX    TMP DP  RH WIND       PRES   REMARKS
BOZEMAN        CLOUDY    44  39  82 SW5       29.74R
DILLON         CLOUDY    39  34  82 CALM      29.73S
W YELLOWSTONE  LGT RAIN  37  37 100 SW9G17    29.77F WCI  31
ENNIS          CLOUDY    45  34  65 SW5       29.78S
THREE FORKS      N/A     43  37  79 CALM      29.77R
TWIN BRIDGES     N/A     41  31  68 CALM      29.76
$$

MTZ009-010-012-014-046-048-049-054-210700-
EAST SLOPES AND CENTRAL MONTANA

CITY           SKY/WX    TMP DP  RH WIND       PRES   REMARKS
CUT BANK       MOCLDY    40  32  73 W15       29.64R
GREAT FALLS    CLEAR     40  30  67 S7        29.68R
MALMSTROM AFB  PTCLDY    41  31  69 SW7       29.68R
HELENA         CLOUDY    42  31  64 CALM      29.73R
BOWMANS CRNR     N/A     40  30  69 S14       29.65F
CHOTEAU          N/A     41  28  60 W6        29.66S
FAIRFIELD        N/A     42  27  56 S13       29.65R
POWER            N/A     37  28  69 S7        29.66R WCI  32
RAYNESFORD       N/A     44  29  56 W9        29.68S
ULM              N/A     45  32  60 SW15      29.68S
$$

MTZ011-013-016-021-045-047-050-051-210700-
NORTH CENTRAL MONTANA

CITY           SKY/WX    TMP DP  RH WIND       PRES   REMARKS
HAVRE          CLOUDY    48  32  53 SW12      29.61R
LEWISTOWN      PTCLDY    45  30  55 SW13      29.68S
N BAR RANCH      N/A     39  30  70 CALM      29.70S
CHINOOK          N/A     48  34  57 CALM      29.60S
DENTON           N/A     46  32  58 S12       29.64R
GEYSER           N/A     44  30  59 W17       29.65F
GRASS RANGE      N/A     46  31  54 SW9       29.63S
JUDITH GAP     MOCLDY    42  33  71 SW7       29.70F
WINIFRED       MOCLDY    47  32  57 SW10      29.65F
$$

MTZ017>020-022>027-061-062-210700-
NORTHEAST MONTANA

CITY           SKY/WX    TMP DP  RH WIND       PRES   REMARKS
GLASGOW        MOCLDY    50  38  63 SE3       29.60S
JORDAN           N/A     54  38  54 SW8       29.61F
SIDNEY         CLEAR     42  34  73 W3        29.64S
WOLF POINT     MOCLDY    49  38  65 CALM      29.62S
MALTA          CLEAR     41  36  81 W3        29.60S
POPLAR           N/A     48  36  61 CALM      29.63S
SCOBEY           N/A     47  32  56 CALM      29.63
$$

MTZ028>42-056>058-210700-
SOUTHCENTRAL AND SOUTHEAST MONTANA

CITY           SKY/WX    TMP DP  RH WIND       PRES   REMARKS
BAKER          CLOUDY    54  31  41 SE9       29.68S
BILLINGS       CLOUDY    51  37  58 NW12      29.68F
LIVINGSTON     CLOUDY    42  40  92 NW5       29.73R
MILES CITY     CLEAR     52  35  52 NW8       29.65S
BIG TIMBER     CLOUDY    45  41  87 SW13      29.74S
EKALAKA          N/A     61  26  26 SE9       29.70
HARLOWTON      MOCLDY    42  36  79 MISG      29.70F
LAUREL           N/A     50  39  66 W5        29.69S
ROUNDUP          N/A     49  36  61 S8        29.62F
$$

REGIONAL REPORTS...DAKOTAS

CITY           SKY/WX    TMP DP  RH WIND       PRES   REMARKS
WILLISTON      CLEAR     44  36  73 S3        29.65R
MINOT          MOCLDY    55  38  52 SE9       29.67S
DICKINSON      CLOUDY    52  36  54 S7        29.68S
BEACH            N/A     50  32  50 S10       29.70S
CROSBY           N/A     45  37  76 SW9       29.63S
TIOGA            N/A     45  34  65 S6        29.67R
WATFORD CITY     N/A     43  34  70 CALM      29.65S
BISMARCK       MOCLDY    57  40  52 SE8       29.74F
GRAND FORKS    CLEAR     54  45  71 S9        29.82R
FARGO          CLEAR     58  44  60 S9        29.85S
BUFFALO SD       N/A     58  34  40 S10       29.67S
$$

REGIONAL REPORTS...WYOMING/IDAHO/WASHINGTON

CITY           SKY/WX    TMP DP  RH WIND       PRES   REMARKS
GILLETTE       CLOUDY    58  33  39 S9        29.70F
SHERIDAN       MOCLDY    62  27  26 CALM      29.66F
BUFFALO WY     CLOUDY    55  26  32 SE8       29.72F
CODY           CLOUDY    52  35  52 E5        29.73R
YELLOWSTONE LA   N/A     35  35 100 CALM      29.81S
IDAHO FALLS    RAIN      47  46  97 SW9       29.79R FOG
SALMON         CLOUDY    37  35  92 E5        29.76S
BOISE          CLOUDY    48  44  86 E6        29.72S
SPOKANE        MOCLDY    42  41  96 CALM      29.75R
$$

REGIONAL REPORTS...ALBERTA

CITY           SKY/WX    TMP DP  RH WIND       PRES   REMARKS
EDMONTON       LGT RAIN  39  37  93 NW12G18   29.58S WCI  32
CALGARY        MOCLDY    39  28  65 N23G30    29.63R WCI  29
LETHBRIDGE     PTCLDY    37  30  75 W10       29.64R WCI  30
MEDICINE HAT   MOCLDY    39  34  81 W5        29.60R
$$

REGIONAL REPORTS...SASKATCHEWAN

CITY           SKY/WX    TMP DP  RH WIND       PRES   REMARKS
SWIFT CURRENT  CLEAR     39  21  48 W10       29.54R
REGINA         PTCLDY    39  32  75 S10       29.56R
SASKATOON      PTCLDY    37  32  81 SW8       29.50R WCI  31
$$




USA.gov is the U.S. government's official web portal to all federal, state and local government web resources and services.